FW6909 Weather Reports


Display with metric or nautical units.
time (UTC)temp
F
wind
direction
speed
MPH
gust
MPH
rain 1hr
in
rain 24hr
in
rain mn
in
humidity
%
barometer
mb
20260904111542 58 231 1.0 5.0 0.00 0.52 0.41 79 1004.1
20260904111033 58 288 1.0 4.0 0.00 0.52 0.41 80 1004.0
20260904110532 58 274 1.0 4.0 0.00 0.52 0.41 80 1003.9
20260904110048 58 302 1.0 4.0 0.00 0.52 0.41 81 1004.0
20260904105532 58 212 1.0 4.0 0.01 0.52 0.41 81 1004.0
20260904105032 58 257 1.0 5.0 0.02 0.52 0.41 81 1003.9
20260904104552 58 298 1.0 5.0 0.07 0.52 0.41 81 1003.7
20260904104031 58 282 1.0 6.0 0.07 0.52 0.41 81 1003.5
20260904103531 58 328 2.0 7.0 0.07 0.52 0.41 82 1003.5
20260904103051 58 301 2.0 7.0 0.07 0.52 0.41 83 1003.4
20260904102531 57 290 2.0 8.0 0.07 0.52 0.41 84 1003.2
20260904102032 57 244 3.0 8.0 0.09 0.52 0.41 85 1003.0
20260904101547 57 293 2.0 8.0 0.10 0.52 0.41 87 1002.9
20260904101031 56 262 2.0 8.0 0.11 0.52 0.41 87 1002.7
20260904100534 56 283 2.0 8.0 0.11 0.52 0.41 87 1002.5
20260904100042 56 259 1.0 4.0 0.13 0.51 0.40 87 1002.3
20260904095533 56 274 1.0 4.0 0.14 0.51 0.40 87 1002.1
20260904095032 56 340 1.0 4.0 0.14 0.49 0.38 87 1002.3
20260904094542 57 197 1.0 5.0 0.11 0.45 0.34 88 1002.1
20260904094032 57 234 1.0 5.0 0.11 0.45 0.34 88 1002.1
20260904093532 56 302 2.0 5.0 0.11 0.45 0.34 88 1002.1
20260904093050 55 250 0.0 5.0 0.10 0.44 0.33 88 1001.9
20260904092532 55 314 1.0 5.0 0.10 0.44 0.33 87 1001.7
20260904092036 55 341 1.0 5.0 0.08 0.42 0.31 87 1001.8
20260904091547 55 12 1.0 5.0 0.09 0.42 0.31 87 1001.7
20260904091032 55 210 1.0 3.0 0.08 0.41 0.30 87 1001.5
20260904090532 55 304 1.0 2.0 0.08 0.40 0.29 87 1001.6
20260904090044 56 321 0.0 3.0 0.07 0.38 0.27 87 1001.6
20260904085531 56 144 1.0 3.0 0.04 0.36 0.25 87 1001.7
20260904085035 56 248 0.0 3.0 0.03 0.34 0.23 87 1001.7
20260904084542 56 0 0.0 3.0 0.03 0.34 0.23 87 1001.6
20260904084032 55 221 0.0 5.0 0.03 0.34 0.23 87 1001.6
20260904083532 55 295 1.0 5.0 0.04 0.34 0.23 87 1001.8
20260904083050 55 274 1.0 5.0 0.04 0.34 0.23 87 1001.7
20260904082532 55 338 1.0 4.0 0.04 0.34 0.23 87 1001.6
20260904082032 55 255 0.0 4.0 0.04 0.33 0.22 87 1001.7
20260904081552 55 219 0.0 4.0 0.04 0.33 0.22 87 1001.7
20260904081031 55 233 1.0 4.0 0.04 0.33 0.22 87 1001.6
20260904080531 55 320 1.0 4.0 0.03 0.32 0.21 87 1001.7
20260904080052 55 189 1.0 3.0 0.03 0.31 0.20 87 1001.5
20260904075533 55 293 0.0 3.0 0.03 0.31 0.20 87 1001.7
20260904075031 55 307 1.0 3.0 0.03 0.31 0.20 87 1001.7
20260904074548 55 243 1.0 2.0 0.03 0.31 0.20 87 1001.6
20260904074032 55 238 1.0 2.0 0.02 0.30 0.19 86 1001.7
20260904073536 55 271 1.0 3.0 0.01 0.29 0.18 86 1001.7
20260904073046 55 329 0.0 4.0 0.01 0.29 0.18 86 1001.8
20260904072531 56 234 1.0 4.0 0.01 0.29 0.18 86 1001.7
20260904072035 56 222 1.0 3.0 0.00 0.28 0.17 86 1001.7
20260904071543 56 257 0.0 2.0 0.00 0.28 0.17 86 1001.7
20260904071031 56 288 0.0 4.0 0.00 0.28 0.17 86 1001.7
20260904070533 56 332 1.0 4.0 0.00 0.28 0.17 86 1001.7
20260904070042 56 269 1.0 4.0 0.00 0.28 0.17 87 1001.7
20260904065531 55 250 0.0 4.0 0.00 0.28 0.17 87 1001.6
20260904065031 55 66 1.0 4.0 0.00 0.28 0.17 87 1001.6
20260904064553 55 256 0.0 3.0 0.00 0.28 0.17 87 1001.7
20260904064031 55 274 0.0 2.0 0.00 0.28 0.17 87 1001.7
20260904063532 55 54 1.0 2.0 0.00 0.28 0.17 87 1001.7
20260904063045 55 322 1.0 4.0 0.01 0.28 0.17 87 1001.8
20260904062531 54 255 1.0 4.0 0.02 0.28 0.17 87 1001.7
20260904062031 54 297 0.0 4.0 0.03 0.27 0.16 87 1001.8
20260904061545 54 233 0.0 3.0 0.03 0.27 0.16 87 1001.8
20260904061031 54 281 0.0 4.0 0.03 0.27 0.16 87 1001.8
20260904060534 54 241 0.0 4.0 0.03 0.27 0.16 87 1001.9
20260904060043 54 269 0.0 3.0 0.03 0.27 0.16 87 1002.0
20260904055531 54 0 0.0 3.0 0.03 0.27 0.16 87 1001.8
20260904055031 54 13 0.0 4.0 0.03 0.27 0.16 87 1001.8
20260904054551 54 266 1.0 4.0 0.03 0.27 0.16 87 1001.9
20260904054032 54 250 1.0 4.0 0.03 0.27 0.16 87 1001.8
20260904053535 54 284 1.0 4.0 0.03 0.27 0.16 87 1001.8
20260904053043 54 311 1.0 4.0 0.02 0.26 0.15 87 1001.8
20260904052532 54 278 1.0 4.0 0.00 0.25 0.14 87 1001.8
20260904052032 54 290 0.0 2.0 0.00 0.24 0.13 87 1001.8
20260904051544 54 139 0.0 3.0 0.00 0.24 0.13 87 1001.8
20260904051031 54 309 0.0 3.0 0.00 0.24 0.13 87 1001.8
20260904050533 54 319 0.0 3.0 0.00 0.24 0.13 88 1001.9
20260904050054 54 317 1.0 4.0 0.00 0.24 0.13 88 1001.9
20260904045531 54 302 1.0 4.0 0.00 0.24 0.13 88 1001.8
20260904045031 54 268 1.0 2.0 0.00 0.24 0.13 88 1001.9
20260904044555 54 276 0.0 2.0 0.00 0.24 0.13 88 1001.8
20260904044031 54 306 0.0 2.0 0.00 0.24 0.13 88 1001.8
20260904043534 54 208 0.0 2.0 0.00 0.24 0.13 88 1001.8
20260904043101 54 274 0.0 2.0 0.00 0.24 0.13 88 1001.9
20260904042532 54 85 0.0 2.0 0.00 0.24 0.13 88 1001.7
20260904042032 54 15 0.0 2.0 0.00 0.24 0.13 88 1001.8
20260904041553 54 347 0.0 2.0 0.00 0.24 0.13 88 1001.8
20260904041031 54 306 0.0 2.0 0.00 0.24 0.13 88 1001.8
20260904040532 54 252 0.0 2.0 0.00 0.24 0.13 88 1001.9
20260904040055 54 0 0.0 1.0 0.00 0.24 0.13 88 1002.2
20260904035531 54 58 0.0 1.0 0.00 0.24 0.13 88 1002.2
20260904035031 54 266 0.0 1.0 0.00 0.24 0.13 88 1002.6
20260904034551 54 243 0.0 2.0 0.01 0.24 0.13 88 1002.7
20260904034031 54 281 0.0 2.0 0.01 0.24 0.13 88 1002.6
20260904033531 54 293 0.0 1.0 0.02 0.24 0.13 88 1002.6
20260904033048 54 0 0.0 1.0 0.02 0.24 0.13 88 1002.5
20260904032534 54 335 0.0 1.0 0.02 0.24 0.13 87 1002.6
20260904032030 54 262 0.0 1.0 0.03 0.24 0.13 87 1002.7
20260904031545 55 293 0.0 1.0 0.03 0.24 0.13 87 1002.6
20260904031030 55 288 0.0 2.0 0.02 0.23 0.12 87 1002.5
20260904030532 55 0 0.0 2.0 0.02 0.23 0.12 87 1002.6
20260904030056 55 0 0.0 2.0 0.02 0.23 0.12 87 1002.5
20260904025531 55 0 0.0 2.0 0.02 0.23 0.12 87 1002.5
20260904025031 55 289 0.0 3.0 0.02 0.23 0.12 87 1002.7
20260904024553 55 231 0.0 3.0 0.01 0.22 0.11 87 1002.8
20260904024032 56 256 0.0 3.0 0.02 0.22 0.11 87 1002.8
20260904023532 56 251 1.0 3.0 0.01 0.22 0.11 88 1003.0
20260904023048 56 256 1.0 4.0 0.01 0.22 0.11 88 1002.9
20260904022531 57 261 1.0 4.0 0.02 0.22 0.11 88 1002.9
20260904022034 57 258 1.0 3.0 0.01 0.21 0.10 88 1003.0
20260904021546 57 252 0.0 2.0 0.01 0.21 0.10 88 1002.7
20260904021033 57 258 0.0 2.0 0.01 0.21 0.10 88 1002.8
20260904020531 57 264 0.0 2.0 0.01 0.21 0.10 88 1002.8
20260904020044 57 2 0.0 1.0 0.01 0.21 0.10 88 1003.0
20260904015534 57 0 0.0 1.0 0.01 0.21 0.10 88 1002.7
20260904015031 57 315 0.0 2.0 0.01 0.21 0.10 88 1002.8
20260904014550 57 122 0.0 3.0 0.02 0.21 0.10 88 1002.8
20260904014031 57 274 0.0 3.0 0.01 0.20 0.09 88 1003.1
20260904013531 57 155 0.0 3.0 0.01 0.20 0.09 88 1003.1
20260904013050 57 290 0.0 3.0 0.01 0.20 0.09 88 1003.1
20260904012531 57 255 1.0 3.0 0.00 0.19 0.08 88 1003.0
20260904012031 57 288 1.0 2.0 0.00 0.19 0.08 88 1003.0
20260904011546 57 0 0.0 1.0 0.00 0.19 0.08 88 1003.1
20260904011030 57 252 0.0 3.0 0.00 0.19 0.08 88 1003.3
20260904010531 57 347 0.0 3.0 0.00 0.19 0.08 88 1003.4
20260904010053 57 242 0.0 3.0 0.00 0.19 0.08 88 1003.4
20260904005531 57 254 0.0 3.0 0.01 0.20 0.08 88 1003.5
20260904005031 57 89 0.0 3.0 0.01 0.20 0.08 88 1003.6
20260904004547 57 290 0.0 2.0 0.00 0.19 0.07 88 1003.6
20260904004031 57 0 0.0 2.0 0.00 0.19 0.07 88 1003.6
20260904003533 57 36 0.0 2.0 0.00 0.19 0.07 88 1003.8
20260904003054 57 283 0.0 2.0 0.01 0.19 0.07 88 1003.8
20260904002532 57 284 0.0 2.0 0.01 0.19 0.07 88 1004.0
20260904002032 57 291 0.0 2.0 0.06 0.19 0.07 88 1003.9
20260904001553 57 275 0.0 2.0 0.07 0.19 0.07 88 1004.0
20260904001032 57 0 0.0 2.0 0.07 0.19 0.07 88 1004.0
20260904000531 57 153 0.0 2.0 0.07 0.19 0.07 88 1004.2
20260903235533 57 281 0.0 2.0 0.07 0.21 0.07 88 1004.4
20260903235031 57 243 0.0 2.0 0.07 0.21 0.07 88 1004.3
20260903234547 57 0 0.0 3.0 0.07 0.21 0.07 88 1004.3
20260903234031 57 285 1.0 3.0 0.07 0.21 0.07 88 1004.6
20260903233534 57 272 0.0 3.0 0.07 0.21 0.07 88 1004.6
20260903233049 57 242 0.0 2.0 0.07 0.20 0.06 88 1004.6
20260903232533 58 293 1.0 2.0 0.07 0.20 0.06 88 1004.7
20260903232033 58 165 0.0 3.0 0.02 0.15 0.01 88 1004.7
20260903231543 58 355 0.0 3.0 0.01 0.14 0.00 88 1004.7
20260903231031 58 270 0.0 3.0 0.01 0.14 0.00 88 1004.9
20260903230531 58 243 0.0 2.0 0.00 0.14 0.00 88 1005.1
20260903230052 58 0 0.0 4.0 0.00 0.14 0.00 87 1004.9
20260903225531 58 302 0.0 4.0 0.00 0.17 0.13 88 1004.9
20260903225030 58 184 0.0 2.0 0.00 0.17 0.13 88 1005.1
20260903224544 58 178 0.0 4.0 0.00 0.17 0.13 87 1005.0
20260903224031 58 293 0.0 4.0 0.00 0.17 0.13 87 1005.0
20260903223531 58 284 0.0 2.0 0.00 0.17 0.13 87 1005.2
20260903223042 58 347 0.0 3.0 0.00 0.17 0.13 87 1005.2
20260903222531 58 314 0.0 4.0 0.00 0.17 0.13 88 1005.3
20260903222030 58 290 1.0 4.0 0.00 0.17 0.13 88 1005.4
20260903221552 58 259 0.0 4.0 0.01 0.17 0.13 88 1005.3
20260903221031 58 205 0.0 3.0 0.01 0.17 0.13 88 1005.3
20260903220531 58 270 1.0 3.0 0.01 0.17 0.13 88 1005.3
20260903220054 58 319 0.0 3.0 0.01 0.17 0.13 88 1005.3
20260903215531 58 359 0.0 2.0 0.01 0.18 0.13 88 1005.4
20260903215031 58 274 0.0 3.0 0.01 0.18 0.13 88 1005.4
20260903214545 58 357 0.0 3.0 0.01 0.18 0.13 88 1005.6
20260903214031 58 103 0.0 3.0 0.00 0.18 0.12 88 1005.7
20260903213531 58 360 0.0 3.0 0.00 0.18 0.12 88 1005.7
20260903213041 58 298 0.0 2.0 0.00 0.18 0.12 87 1005.7
20260903212530 58 278 0.0 4.0 0.00 0.18 0.12 87 1005.9
20260903212031 58 98 0.0 4.0 0.00 0.18 0.12 87 1005.8
20260903211554 58 287 0.0 3.0 0.00 0.17 0.11 87 1005.9
20260903211031 58 104 0.0 2.0 0.00 0.17 0.11 87 1006.0
20260903210531 58 243 0.0 3.0 0.00 0.17 0.11 87 1006.0
20260903210046 58 133 0.0 3.0 0.01 0.17 0.11 87 1006.0
20260903205530 58 0 0.0 3.0 0.02 0.64 0.11 87 1006.2
20260903205031 58 281 0.0 2.0 0.02 0.64 0.11 87 1006.1
20260903204543 58 328 0.0 2.0 0.03 0.64 0.11 87 1006.1
20260903204031 58 0 0.0 2.0 0.03 0.64 0.11 87 1006.2
20260903203531 58 0 0.0 2.0 0.03 0.64 0.11 87 1006.4
20260903203044 58 266 0.0 2.0 0.04 0.64 0.11 87 1006.5
20260903202532 58 234 0.0 2.0 0.04 0.64 0.11 87 1006.5
20260903202030 58 306 0.0 3.0 0.05 0.64 0.11 87 1006.7
20260903201552 58 278 1.0 3.0 0.05 0.64 0.11 87 1006.8
20260903201028 58 270 0.0 3.0 0.04 0.63 0.11 87 1006.8
20260903200531 58 75 0.0 3.0 0.04 0.63 0.11 87 1006.7
20260903200101 58 253 0.0 3.0 0.04 0.62 0.10 86 1006.8
20260903195530 58 255 0.0 3.0 0.03 0.65 0.09 86 1007.0
20260903195030 58 299 0.0 2.0 0.03 0.65 0.09 86 1006.9
20260903194545 58 214 0.0 3.0 0.03 0.64 0.08 86 1007.0
20260903194031 58 0 0.0 3.0 0.03 0.64 0.08 86 1007.0
20260903193527 58 0 0.0 2.0 0.02 0.63 0.07 86 1006.9
20260903193042 58 309 0.0 2.0 0.01 0.62 0.07 86 1007.1
20260903192618 58 263 0.0 3.0 0.01 0.62 0.07 86 1007.2
20260903192030 58 330 0.0 3.0 0.00 0.62 0.06 86 1007.1
20260903191556 58 318 0.0 4.0 0.01 0.62 0.06 86 1007.0
20260903191031 58 333 1.0 4.0 0.01 0.62 0.06 85 1007.0
20260903190531 58 233 0.0 2.0 0.01 0.62 0.06 85 1006.9
20260903190044 58 193 0.0 2.0 0.00 0.61 0.05 85 1006.8
20260903185530 58 236 0.0 2.0 0.00 0.64 0.05 85 1007.0
20260903185033 58 122 0.0 3.0 0.00 0.64 0.05 85 1007.0
20260903184558 58 278 1.0 3.0 0.00 0.64 0.05 85 1007.1
20260903184030 58 297 1.0 3.0 0.01 0.64 0.05 85 1007.3
20260903183531 58 284 0.0 3.0 0.01 0.64 0.05 85 1007.2
20260903183056 58 257 1.0 3.0 0.02 0.64 0.05 85 1007.1
20260903182533 58 245 0.0 3.0 0.02 0.64 0.05 85 1007.1
20260903182033 58 262 0.0 3.0 0.02 0.64 0.05 85 1007.0
20260903181543 58 280 0.0 3.0 0.01 0.63 0.04 85 1006.9
20260903181030 58 0 0.0 3.0 0.01 0.63 0.04 85 1007.1
20260903180530 58 293 0.0 3.0 0.01 0.63 0.04 84 1007.1
20260903180050 58 100 0.0 1.0 0.01 0.63 0.04 84 1007.3
20260903175532 59 11 0.0 1.0 0.01 0.65 0.04 84 1007.3
20260903175030 59 0 0.0 1.0 0.01 0.65 0.04 84 1007.4
20260903174551 59 277 0.0 2.0 0.01 0.65 0.04 84 1007.5
20260903174031 59 72 0.0 2.0 0.00 0.64 0.03 83 1007.7
20260903173527 59 259 0.0 2.0 0.00 0.64 0.03 83 1007.6
20260903173049 59 221 0.0 1.0 0.00 0.63 0.03 83 1007.7
20260903172533 59 60 0.0 1.0 0.00 0.63 0.03 83 1007.8
20260903172028 59 134 0.0 1.0 0.00 0.63 0.03 83 1007.8
20260903171545 59 252 0.0 1.0 0.00 0.63 0.03 83 1007.8
20260903171030 59 263 0.0 1.0 0.00 0.63 0.03 83 1007.8
20260903170531 59 0 0.0 1.0 0.00 0.63 0.03 83 1007.8
20260903170044 59 269 0.0 2.0 0.00 0.63 0.03 83 1007.9
20260903165529 59 0 0.0 2.0 0.00 0.66 0.03 83 1007.9
20260903165027 59 323 0.0 2.0 0.00 0.66 0.03 83 1008.0
20260903164550 59 0 0.0 2.0 0.00 0.66 0.03 83 1008.1
20260903164031 59 344 0.0 2.0 0.00 0.66 0.03 83 1008.1
20260903163527 59 165 0.0 2.0 0.00 0.66 0.03 82 1008.3
20260903163044 59 235 0.0 2.0 0.00 0.66 0.03 82 1008.3
20260903162533 59 319 0.0 3.0 0.00 0.66 0.03 82 1008.3
20260903162031 59 237 0.0 3.0 0.00 0.66 0.03 82 1008.3
20260903161556 59 290 1.0 2.0 0.00 0.66 0.03 82 1008.4
20260903161030 59 253 0.0 2.0 0.00 0.66 0.03 83 1008.3
20260903160532 59 261 0.0 2.0 0.00 0.66 0.03 83 1008.6
20260903160052 59 225 0.0 3.0 0.00 0.66 0.03 83 1008.3
20260903155531 58 266 0.0 3.0 0.00 0.67 0.03 83 1008.4
20260903155031 58 246 0.0 3.0 0.00 0.67 0.03 83 1008.3
20260903154551 58 260 0.0 2.0 0.00 0.67 0.03 83 1008.2
20260903154030 58 258 0.0 3.0 0.00 0.67 0.03 83 1008.2
20260903153531 58 0 0.0 3.0 0.00 0.67 0.03 83 1008.1
20260903153047 58 273 0.0 2.0 0.00 0.67 0.03 83 1008.2
20260903152531 58 92 0.0 1.0 0.00 0.67 0.03 82 1008.3
20260903152030 59 255 0.0 1.0 0.00 0.67 0.03 82 1008.2
20260903151544 59 112 0.0 1.0 0.00 0.67 0.03 82 1008.3
20260903151031 59 0 0.0 2.0 0.00 0.67 0.03 82 1008.5
20260903150531 59 261 0.0 2.0 0.00 0.67 0.03 81 1008.8
20260903150055 59 326 0.0 3.0 0.00 0.67 0.03 81 1008.9
20260903145530 59 0 0.0 4.0 0.00 0.67 0.03 80 1008.9
20260903145032 59 333 1.0 4.0 0.00 0.67 0.03 79 1009.0
20260903144544 60 262 1.0 3.0 0.00 0.67 0.03 79 1009.0
20260903144031 60 90 1.0 3.0 0.00 0.67 0.03 79 1009.2
20260903143531 60 224 0.0 3.0 0.00 0.67 0.03 78 1009.1
20260903143105 60 261 0.0 3.0 0.00 0.67 0.03 78 1009.1
20260903142531 61 283 0.0 3.0 0.00 0.67 0.03 78 1009.1
20260903142033 61 155 0.0 3.0 0.00 0.67 0.03 79 1009.2
20260903141544 61 238 0.0 3.0 0.00 0.67 0.03 79 1009.3
20260903141031 61 298 0.0 1.0 0.00 0.67 0.03 79 1009.4
20260903140535 61 0 0.0 1.0 0.00 0.67 0.03 79 1009.2
20260903140054 61 0 0.0 2.0 0.00 0.67 0.03 80 1009.2
20260903135531 61 305 0.0 3.0 0.00 0.69 0.03 80 1009.3
20260903135031 61 110 1.0 3.0 0.00 0.69 0.03 80 1009.1
20260903134553 61 266 0.0 2.0 0.00 0.69 0.03 80 1009.2
20260903134031 61 250 0.0 3.0 0.00 0.69 0.03 79 1009.1
20260903133531 61 283 0.0 3.0 0.00 0.69 0.03 79 1009.4
20260903133054 61 278 1.0 5.0 0.00 0.69 0.03 79 1009.3
20260903132534 61 317 0.0 5.0 0.00 0.69 0.03 78 1009.3
20260903132031 61 137 0.0 3.0 0.00 0.69 0.03 78 1009.5
20260903131607 61 244 0.0 2.0 0.00 0.69 0.03 78 1009.2
20260903131030 61 238 0.0 2.0 0.00 0.69 0.03 78 1009.4
20260903130531 61 217 0.0 3.0 0.00 0.69 0.03 78 1009.4
20260903125531 61 270 1.0 3.0 0.00 0.71 0.03 77 1009.7
20260903125030 61 283 0.0 2.0 0.00 0.71 0.03 77 1009.7
20260903124545 62 328 0.0 2.0 0.00 0.71 0.03 77 1009.4
20260903124031 62 0 0.0 3.0 0.00 0.71 0.03 76 1009.7
20260903123535 62 26 0.0 3.0 0.00 0.71 0.03 76 1009.9
20260903123057 62 259 1.0 4.0 0.00 0.71 0.03 76 1009.7
20260903122532 63 277 0.0 4.0 0.00 0.71 0.03 76 1009.7
20260903122033 63 190 0.0 3.0 0.00 0.71 0.03 75 1009.7
20260903121550 63 321 0.0 2.0 0.00 0.71 0.03 76 1009.7
20260903121034 63 248 0.0 2.0 0.00 0.71 0.03 75 1009.7
20260903120536 63 160 0.0 2.0 0.00 0.71 0.03 75 1009.6
20260903120046 63 326 0.0 2.0 0.00 0.71 0.03 75 1009.6
20260903115534 63 266 0.0 2.0 0.00 0.72 0.03 75 1009.9
20260903115035 63 15 0.0 2.0 0.00 0.72 0.03 75 1009.7
20260903114552 63 0 0.0 2.0 0.00 0.72 0.03 74 1009.6
20260903114031 63 236 0.0 2.0 0.00 0.72 0.03 74 1009.4
20260903113532 63 345 0.0 2.0 0.00 0.72 0.03 75 1009.5
20260903113053 63 312 0.0 2.0 0.00 0.72 0.03 75 1009.4
20260903112534 63 274 0.0 2.0 0.00 0.72 0.03 75 1009.5
20260903112033 62 217 1.0 2.0 0.00 0.72 0.03 74 1009.6